TimePST,TemperatureF,Dew PointF,Humidity,Sea Level PressureIn,VisibilityMPH,Wind Direction,Wind SpeedMPH,Gust SpeedMPH,PrecipitationIn,Events,Conditions,WindDirDegrees,DateUTC
12:56 AM,37.9,34.0,86,30.19,9.0,ESE,3.5,-,0.02,Rain,Light Rain,110,2012-11-19 08:56:00
1:56 AM,37.9,34.0,86,30.18,7.0,East,3.5,-,0.03,Rain,Light Rain,100,2012-11-19 09:56:00
2:44 AM,37.4,33.8,87,30.09,7.0,ESE,4.6,-,0.03,Rain,Light Rain,110,2012-11-19 10:44:00
2:51 AM,37.4,33.8,87,30.09,8.0,ESE,4.6,-,0.03,Rain,Light Rain,110,2012-11-19 10:51:00
2:56 AM,37.9,34.0,86,30.17,7.0,Variable,3.5,-,0.04,Rain,Light Rain,0,2012-11-19 10:56:00
3:56 AM,37.9,34.0,86,30.17,6.0,East,6.9,-,0.02,Rain,Light Rain,100,2012-11-19 11:56:00
4:56 AM,39.0,34.0,82,30.17,8.0,ESE,3.5,-,0.04,Rain,Light Rain,110,2012-11-19 12:56:00
5:56 AM,39.0,35.1,86,30.17,6.0,East,6.9,-,0.05,Rain,Light Rain,100,2012-11-19 13:56:00
6:56 AM,39.0,35.1,86,30.17,8.0,Variable,4.6,-,0.04,Rain,Light Rain,0,2012-11-19 14:56:00
7:56 AM,39.0,35.1,86,30.18,4.0,Variable,5.8,-,0.04,Rain,Light Rain,0,2012-11-19 15:56:00
8:56 AM,39.9,36.0,86,30.19,9.0,ESE,5.8,-,0.06,Rain,Light Rain,120,2012-11-19 16:56:00
9:56 AM,41.0,36.0,82,30.20,10.0,Variable,4.6,23.0,0.02,Rain,Light Rain,0,2012-11-19 17:56:00
10:17 AM,41.0,37.4,87,30.11,9.0,Variable,5.8,-,0.01,Rain,Light Rain,0,2012-11-19 18:17:00
10:27 AM,41.0,37.4,87,30.11,10.0,ESE,5.8,-,0.02,Rain,Light Rain,120,2012-11-19 18:27:00
10:56 AM,41.0,37.0,86,30.20,6.0,ESE,5.8,-,0.02,Rain,Light Rain,120,2012-11-19 18:56:00
11:38 AM,41.0,37.4,87,30.10,7.0,Variable,6.9,-,0.02,Rain,Light Rain,0,2012-11-19 19:38:00
11:47 AM,41.0,37.4,87,30.10,6.0,Variable,5.8,-,0.02,Rain,Light Rain,0,2012-11-19 19:47:00
11:56 AM,41.0,37.9,89,30.18,6.0,Variable,6.9,-,0.03,Rain,Light Rain,0,2012-11-19 19:56:00
12:56 PM,42.1,37.9,85,30.15,9.0,ESE,6.9,-,0.04,Rain,Light Rain,120,2012-11-19 20:56:00
1:07 PM,42.8,37.4,81,30.07,7.0,SE,5.8,-,0.01,Rain,Light Rain,130,2012-11-19 21:07:00
1:19 PM,42.8,37.4,81,30.07,6.0,Variable,6.9,-,0.01,Rain,Light Rain,0,2012-11-19 21:19:00
1:56 PM,42.1,37.9,85,30.14,8.0,Variable,5.8,-,0.02,Rain,Light Rain,0,2012-11-19 21:56:00
2:56 PM,42.1,39.0,89,30.13,4.0,Variable,4.6,-,0.03,Rain,Light Rain,0,2012-11-19 22:56:00
3:52 PM,42.8,39.2,87,30.04,7.0,Variable,6.9,20.7,0.02,,Overcast,0,2012-11-19 23:52:00
3:56 PM,43.0,39.0,86,30.12,7.0,Variable,6.9,21.9,0.02,,Overcast,0,2012-11-19 23:56:00
4:56 PM,43.0,39.9,89,30.11,9.0,Variable,6.9,-,0.02,Rain,Light Rain,0,2012-11-20 00:56:00
5:56 PM,44.1,39.9,85,30.11,10.0,Variable,6.9,20.7,0.00,Rain,Light Rain,0,2012-11-20 01:56:00
6:10 PM,44.6,39.2,81,30.03,10.0,Variable,5.8,-,0.00,Rain,Light Rain,0,2012-11-20 02:10:00
6:51 PM,44.6,41.0,87,30.03,5.0,Variable,4.6,-,0.00,Rain,Light Rain,0,2012-11-20 02:51:00
6:56 PM,45.0,41.0,86,30.09,6.0,Variable,6.9,-,0.00,Rain,Light Rain,0,2012-11-20 02:56:00
8:34 PM,44.6,41.0,87,30.03,9.0,Variable,5.8,-,0.01,Rain,Light Rain,0,2012-11-20 04:34:00
8:56 PM,45.0,41.0,86,30.09,8.0,Variable,3.5,-,0.02,Rain,Light Rain,0,2012-11-20 04:56:00
9:56 PM,46.0,41.0,83,30.09,5.0,Variable,5.8,-,0.02,Rain,Light Rain,0,2012-11-20 05:56:00
10:56 PM,46.0,41.0,83,30.09,9.0,Variable,4.6,-,0.02,,Overcast,0,2012-11-20 06:56:00
11:56 PM,45.0,41.0,86,30.08,9.0,Variable,6.9,-,0.02,,Overcast,0,2012-11-20 07:56:00